1998-067XT

Last updated on Sun Dec 14 2025 00:02:09 GMT+0000 (Coordinated Universal Time)

1 66907U 98067XT 25346.72657438 .00084420 00000+0 13979-2 0 9998 2 66907 51.6298 142.4529 0004476 226.7870 133.2746 15.51436780 1615
UTC large
Height (km)
Speed (km/s)
/
Latitude / Longitude
Inclination (degrees)
Orbital Period (minutes)
Azimuth
Elevation
Range (km)
Doppler Factor

Next 0 passes for location: London (51.5072 / 0.1276)

Sorry there are no passes over London.